Retour au catalogue

AT&T T-16

ActifCommunicationsGEO
NORAD 44333·PAYLOAD·🇺🇸 United States

Lancé Jun 20, 2019 depuis Guiana Space Centre

Loading…

TLE

FraisSource: Space-Track

Époque: Sep 14, 2026, 21:52 UTC

1 44333U 19034A   26257.91160071 -.00000122  00000-0  00000-0 0  9997
2 44333   0.0163 127.2970 0000674 311.2328 142.6769  1.00269924 26538

Suivez AT&T T-16 en temps réel avec AllMySat

Download on the App Store